sat.trackr.live / text

‹ back to catalog

STARLINK-30075

NORAD 57616 · 2023-119Q

PAYLOAD ACTIVE UNKNOWN

§ Identity

Operator
Country
US
Launch date
2023-08-11
Launch site
AFETR
Launch vehicle
Mass (kg)
RCS (m²)

Purposes: comms

External: N2YO · Heavens-Above · Gunter

§ Orbital elements

Epoch: 2026-05-24T22:44:35.497248Z

Period
94.27 min
Inclination
43.0070°
Eccentricity
0.0001333
Mean motion
15.27579682 rev/d
Perigee alt
482.1 km
Apogee alt
484.0 km
Semi-major
6,861.2 km
B*
-1.1438e-5
RAAN
10.5270°
Arg perigee
238.6152°
Mean anomaly
121.4570°
Rev number
15,475

§ Raw data

STARLINK-300751 57616U 23119Q   26144.94763307 -.00000577  00000+0 -11438-4 0  99982 57616  43.0070  10.5270 0001333 238.6152 121.4570 15.27579682154757

JSON: /api/v1/satellites/57616 · /tle

For live sub-satellite position, see the globe view (requires WebGL).

§ Visibility from observer

Set your observer location to see the next 7 days of passes ≥ 10°. The values pass through the URL so the page stays shareable.

No JS? Fill the form by hand. The geolocation button needs JavaScript.